Year,Month,Day,Hour,Minute,Value (Times are PST for insolation in W/m^2)
2007,11,12,00,00,0.00
2007,11,12,00,01,0.00
2007,11,12,00,02,0.00
2007,11,12,00,03,0.00
2007,11,12,00,04,0.00
2007,11,12,00,05,0.00
2007,11,12,00,06,0.00
2007,11,12,00,07,0.00
2007,11,12,00,08,0.00
2007,11,12,00,09,0.00
2007,11,12,00,10,0.00
2007,11,12,00,11,0.00
2007,11,12,00,12,0.00
2007,11,12,00,13,0.00
2007,11,12,00,14,0.00
2007,11,12,00,15,0.00
2007,11,12,00,16,0.00
2007,11,12,00,17,0.00
2007,11,12,00,18,0.00
2007,11,12,00,19,0.00
2007,11,12,00,20,0.00
2007,11,12,00,21,0.00
2007,11,12,00,22,0.00
2007,11,12,00,23,0.00
2007,11,12,00,24,0.00
2007,11,12,00,25,0.00
2007,11,12,00,26,0.00
2007,11,12,00,27,0.00
2007,11,12,00,28,0.00
2007,11,12,00,29,0.00
2007,11,12,00,30,0.00
2007,11,12,00,31,0.00
2007,11,12,00,32,0.00
2007,11,12,00,33,0.00
2007,11,12,00,34,0.00
2007,11,12,00,35,0.00
2007,11,12,00,36,0.00
2007,11,12,00,37,0.00
2007,11,12,00,38,0.00
2007,11,12,00,39,0.00
2007,11,12,00,40,0.00
2007,11,12,00,41,0.00
2007,11,12,00,42,0.00
2007,11,12,00,43,0.00
2007,11,12,00,44,0.00
2007,11,12,00,45,0.00
2007,11,12,00,46,0.00
2007,11,12,00,47,0.00
2007,11,12,00,48,0.00
2007,11,12,00,49,0.00
2007,11,12,00,50,0.00
2007,11,12,00,51,0.00
2007,11,12,00,52,0.00
2007,11,12,00,53,0.00
2007,11,12,00,54,0.00
2007,11,12,00,55,0.00
2007,11,12,00,56,0.00
2007,11,12,00,57,0.00
2007,11,12,00,58,0.00
2007,11,12,00,59,0.00
2007,11,12,01,00,0.00
2007,11,12,01,01,0.00
2007,11,12,01,02,0.00
2007,11,12,01,03,0.00
2007,11,12,01,04,0.00
2007,11,12,01,05,0.00
2007,11,12,01,06,0.00
2007,11,12,01,07,0.00
2007,11,12,01,08,0.00
2007,11,12,01,09,0.00
2007,11,12,01,10,0.00
2007,11,12,01,11,0.00
2007,11,12,01,12,0.00
2007,11,12,01,13,0.00
2007,11,12,01,14,0.00
2007,11,12,01,15,0.00
2007,11,12,01,16,0.00
2007,11,12,01,17,0.00
2007,11,12,01,18,0.00
2007,11,12,01,19,0.00
2007,11,12,01,20,0.00
2007,11,12,01,21,0.00
2007,11,12,01,22,0.00
2007,11,12,01,23,0.00
2007,11,12,01,24,0.00
2007,11,12,01,25,0.00
2007,11,12,01,26,0.00
2007,11,12,01,27,0.00
2007,11,12,01,28,0.00
2007,11,12,01,29,0.00
2007,11,12,01,30,0.00
2007,11,12,01,31,0.00
2007,11,12,01,32,0.00
2007,11,12,01,33,0.00
2007,11,12,01,34,0.00
2007,11,12,01,35,0.00
2007,11,12,01,36,0.00
2007,11,12,01,37,0.00
2007,11,12,01,38,0.00
2007,11,12,01,39,0.00
2007,11,12,01,40,0.00
2007,11,12,01,41,0.00
2007,11,12,01,42,0.00
2007,11,12,01,43,0.00
2007,11,12,01,44,0.00
2007,11,12,01,45,0.00
2007,11,12,01,46,0.00
2007,11,12,01,47,0.00
2007,11,12,01,48,0.00
2007,11,12,01,49,0.00
2007,11,12,01,50,0.00
2007,11,12,01,51,0.00
2007,11,12,01,52,0.00
2007,11,12,01,53,0.00
2007,11,12,01,54,0.00
2007,11,12,01,55,0.00
2007,11,12,01,56,0.00
2007,11,12,01,57,0.00
2007,11,12,01,58,0.00
2007,11,12,01,59,0.00
2007,11,12,02,00,0.00
2007,11,12,02,01,0.00
2007,11,12,02,02,0.00
2007,11,12,02,03,0.00
2007,11,12,02,04,0.00
2007,11,12,02,05,0.00
2007,11,12,02,06,0.00
2007,11,12,02,07,0.00
2007,11,12,02,08,0.00
2007,11,12,02,09,0.00
2007,11,12,02,10,0.00
2007,11,12,02,11,0.00
2007,11,12,02,12,0.00
2007,11,12,02,13,0.00
2007,11,12,02,14,0.00
2007,11,12,02,15,0.00
2007,11,12,02,16,0.00
2007,11,12,02,17,0.00
2007,11,12,02,18,0.00
2007,11,12,02,19,0.00
2007,11,12,02,20,0.00
2007,11,12,02,21,0.00
2007,11,12,02,22,0.00
2007,11,12,02,23,0.00
2007,11,12,02,24,0.00
2007,11,12,02,25,0.00
2007,11,12,02,26,0.00
2007,11,12,02,27,0.00
2007,11,12,02,28,0.00
2007,11,12,02,29,0.00
2007,11,12,02,30,0.00
2007,11,12,02,31,0.00
2007,11,12,02,32,0.00
2007,11,12,02,33,0.00
2007,11,12,02,34,0.00
2007,11,12,02,35,0.00
2007,11,12,02,36,0.00
2007,11,12,02,37,0.00
2007,11,12,02,38,0.00
2007,11,12,02,39,0.00
2007,11,12,02,40,0.00
2007,11,12,02,41,0.00
2007,11,12,02,42,0.00
2007,11,12,02,43,0.00
2007,11,12,02,44,0.00
2007,11,12,02,45,0.00
2007,11,12,02,46,0.00
2007,11,12,02,47,0.00
2007,11,12,02,48,0.00
2007,11,12,02,49,0.00
2007,11,12,02,50,0.00
2007,11,12,02,51,0.00
2007,11,12,02,52,0.00
2007,11,12,02,53,0.00
2007,11,12,02,54,0.00
2007,11,12,02,55,0.00
2007,11,12,02,56,0.00
2007,11,12,02,57,0.00
2007,11,12,02,58,0.00
2007,11,12,02,59,0.00
2007,11,12,03,00,0.00
2007,11,12,03,01,0.00
2007,11,12,03,02,0.00
2007,11,12,03,03,0.00
2007,11,12,03,04,0.00
2007,11,12,03,05,0.00
2007,11,12,03,06,0.00
2007,11,12,03,07,0.00
2007,11,12,03,08,0.00
2007,11,12,03,09,0.00
2007,11,12,03,10,0.00
2007,11,12,03,11,0.00
2007,11,12,03,12,0.00
2007,11,12,03,13,0.00
2007,11,12,03,14,0.00
2007,11,12,03,15,0.00
2007,11,12,03,16,0.00
2007,11,12,03,17,0.00
2007,11,12,03,18,0.00
2007,11,12,03,19,0.00
2007,11,12,03,20,0.00
2007,11,12,03,21,0.00
2007,11,12,03,22,0.00
2007,11,12,03,23,0.00
2007,11,12,03,24,0.00
2007,11,12,03,25,0.00
2007,11,12,03,26,0.00
2007,11,12,03,27,0.00
2007,11,12,03,28,0.00
2007,11,12,03,29,0.00
2007,11,12,03,30,0.00
2007,11,12,03,31,0.00
2007,11,12,03,32,0.00
2007,11,12,03,33,0.00
2007,11,12,03,34,0.00
2007,11,12,03,35,0.00
2007,11,12,03,36,0.00
2007,11,12,03,37,0.00
2007,11,12,03,38,0.00
2007,11,12,03,39,0.00
2007,11,12,03,40,0.00
2007,11,12,03,41,0.00
2007,11,12,03,42,0.00
2007,11,12,03,43,0.00
2007,11,12,03,44,0.00
2007,11,12,03,45,0.00
2007,11,12,03,46,0.00
2007,11,12,03,47,0.00
2007,11,12,03,48,0.00
2007,11,12,03,49,0.00
2007,11,12,03,50,0.00
2007,11,12,03,51,0.00
2007,11,12,03,52,0.00
2007,11,12,03,53,0.00
2007,11,12,03,54,0.00
2007,11,12,03,55,0.00
2007,11,12,03,56,0.00
2007,11,12,03,57,0.00
2007,11,12,03,58,0.00
2007,11,12,03,59,0.00
2007,11,12,04,00,0.00
2007,11,12,04,01,0.00
2007,11,12,04,02,0.00
2007,11,12,04,03,0.00
2007,11,12,04,04,0.00
2007,11,12,04,05,0.00
2007,11,12,04,06,0.00
2007,11,12,04,07,0.00
2007,11,12,04,08,0.00
2007,11,12,04,09,0.00
2007,11,12,04,10,0.00
2007,11,12,04,11,0.00
2007,11,12,04,12,0.00
2007,11,12,04,13,0.00
2007,11,12,04,14,0.00
2007,11,12,04,15,0.00
2007,11,12,04,16,0.00
2007,11,12,04,17,0.00
2007,11,12,04,18,0.00
2007,11,12,04,19,0.00
2007,11,12,04,20,0.00
2007,11,12,04,21,0.00
2007,11,12,04,22,0.00
2007,11,12,04,23,0.00
2007,11,12,04,24,0.00
2007,11,12,04,25,0.00
2007,11,12,04,26,0.00
2007,11,12,04,27,0.00
2007,11,12,04,28,0.00
2007,11,12,04,29,0.00
2007,11,12,04,30,0.00
2007,11,12,04,31,0.00
2007,11,12,04,32,0.00
2007,11,12,04,33,0.00
2007,11,12,04,34,0.00
2007,11,12,04,35,0.00
2007,11,12,04,36,0.00
2007,11,12,04,37,0.00
2007,11,12,04,38,0.00
2007,11,12,04,39,0.00
2007,11,12,04,40,0.00
2007,11,12,04,41,0.00
2007,11,12,04,42,0.00
2007,11,12,04,43,0.00
2007,11,12,04,44,0.00
2007,11,12,04,45,0.00
2007,11,12,04,46,0.00
2007,11,12,04,47,0.00
2007,11,12,04,48,0.00
2007,11,12,04,49,0.00
2007,11,12,04,50,0.00
2007,11,12,04,51,0.00
2007,11,12,04,52,0.00
2007,11,12,04,53,0.00
2007,11,12,04,54,0.00
2007,11,12,04,55,0.00
2007,11,12,04,56,0.00
2007,11,12,04,57,0.00
2007,11,12,04,58,0.00
2007,11,12,04,59,0.00
2007,11,12,05,00,0.00
2007,11,12,05,01,0.00
2007,11,12,05,02,0.00
2007,11,12,05,03,0.00
2007,11,12,05,04,0.00
2007,11,12,05,05,0.00
2007,11,12,05,06,0.00
2007,11,12,05,07,0.00
2007,11,12,05,08,0.00
2007,11,12,05,09,0.00
2007,11,12,05,10,0.00
2007,11,12,05,11,0.00
2007,11,12,05,12,0.00
2007,11,12,05,13,0.00
2007,11,12,05,14,0.00
2007,11,12,05,15,0.00
2007,11,12,05,16,0.00
2007,11,12,05,17,0.00
2007,11,12,05,18,0.00
2007,11,12,05,19,0.00
2007,11,12,05,20,0.00
2007,11,12,05,21,0.00
2007,11,12,05,22,0.00
2007,11,12,05,23,0.00
2007,11,12,05,24,0.00
2007,11,12,05,25,0.00
2007,11,12,05,26,0.00
2007,11,12,05,27,0.00
2007,11,12,05,28,0.00
2007,11,12,05,29,0.00
2007,11,12,05,30,0.00
2007,11,12,05,31,0.00
2007,11,12,05,32,0.00
2007,11,12,05,33,0.00
2007,11,12,05,34,0.00
2007,11,12,05,35,0.00
2007,11,12,05,36,0.00
2007,11,12,05,37,0.00
2007,11,12,05,38,0.00
2007,11,12,05,39,0.00
2007,11,12,05,40,0.00
2007,11,12,05,41,0.00
2007,11,12,05,42,0.00
2007,11,12,05,43,0.00
2007,11,12,05,44,0.00
2007,11,12,05,45,0.00
2007,11,12,05,46,0.00
2007,11,12,05,47,0.00
2007,11,12,05,48,0.00
2007,11,12,05,49,0.00
2007,11,12,05,50,0.00
2007,11,12,05,51,0.00
2007,11,12,05,52,0.00
2007,11,12,05,53,0.00
2007,11,12,05,54,0.00
2007,11,12,05,55,0.00
2007,11,12,05,56,0.00
2007,11,12,05,57,0.00
2007,11,12,05,58,0.00
2007,11,12,05,59,0.00
2007,11,12,06,00,0.00
2007,11,12,06,01,0.00
2007,11,12,06,02,0.00
2007,11,12,06,03,0.00
2007,11,12,06,04,0.00
2007,11,12,06,05,0.00
2007,11,12,06,06,0.00
2007,11,12,06,07,0.00
2007,11,12,06,08,0.00
2007,11,12,06,09,0.00
2007,11,12,06,10,0.00
2007,11,12,06,11,0.00
2007,11,12,06,12,0.00
2007,11,12,06,13,0.00
2007,11,12,06,14,0.00
2007,11,12,06,15,0.00
2007,11,12,06,16,0.00
2007,11,12,06,17,0.00
2007,11,12,06,18,0.00
2007,11,12,06,19,0.00
2007,11,12,06,20,0.00
2007,11,12,06,21,0.00
2007,11,12,06,22,0.00
2007,11,12,06,23,0.00
2007,11,12,06,24,0.00
2007,11,12,06,25,0.00
2007,11,12,06,26,0.00
2007,11,12,06,27,0.00
2007,11,12,06,28,0.00
2007,11,12,06,29,0.00
2007,11,12,06,30,0.00
2007,11,12,06,31,0.00
2007,11,12,06,32,0.00
2007,11,12,06,33,0.00
2007,11,12,06,34,0.00
2007,11,12,06,35,0.00
2007,11,12,06,36,0.00
2007,11,12,06,37,0.00
2007,11,12,06,38,0.00
2007,11,12,06,39,0.00
2007,11,12,06,40,0.00
2007,11,12,06,41,0.00
2007,11,12,06,42,0.00
2007,11,12,06,43,0.00
2007,11,12,06,44,0.00
2007,11,12,06,45,0.00
2007,11,12,06,46,0.00
2007,11,12,06,47,0.00
2007,11,12,06,48,0.00
2007,11,12,06,49,0.00
2007,11,12,06,50,0.00
2007,11,12,06,51,0.00
2007,11,12,06,52,0.00
2007,11,12,06,53,0.00
2007,11,12,06,54,0.00
2007,11,12,09,20,9.00
2007,11,12,09,22,9.00
2007,11,12,09,23,11.10
2007,11,12,09,24,12.00
2007,11,12,09,25,12.00
2007,11,12,09,26,12.00
2007,11,12,09,27,12.00
2007,11,12,09,28,12.00
2007,11,12,09,29,11.20
2007,11,12,09,30,11.00
2007,11,12,09,31,11.00
2007,11,12,09,32,11.00
2007,11,12,09,33,11.00
2007,11,12,09,34,11.00
2007,11,12,09,35,11.00
2007,11,12,09,36,9.70
2007,11,12,09,37,9.00
2007,11,12,09,38,9.00
2007,11,12,09,39,11.00
2007,11,12,09,40,11.00
2007,11,12,09,41,10.60
2007,11,12,09,42,9.00
2007,11,12,09,43,9.00
2007,11,12,09,44,9.00
2007,11,12,09,45,9.00
2007,11,12,09,46,10.60
2007,11,12,09,47,11.00
2007,11,12,09,48,11.00
2007,11,12,09,49,11.00
2007,11,12,09,50,11.00
2007,11,12,09,51,11.40
2007,11,12,09,52,12.00
2007,11,12,09,53,11.40
2007,11,12,09,54,11.00
2007,11,12,09,55,11.00
2007,11,12,09,56,11.90
2007,11,12,09,57,12.00
2007,11,12,09,58,12.40
2007,11,12,09,59,14.00
2007,11,12,10,00,14.00
2007,11,12,10,01,15.10
2007,11,12,10,02,18.00
2007,11,12,10,03,19.00
2007,11,12,10,04,20.80
2007,11,12,10,05,21.00
2007,11,12,10,06,21.00
2007,11,12,10,07,21.00
2007,11,12,10,08,22.50
2007,11,12,10,09,25.00
2007,11,12,10,10,22.00
2007,11,12,10,11,18.30
2007,11,12,10,12,18.00
2007,11,12,10,13,18.00
2007,11,12,10,14,18.00
2007,11,12,10,15,17.70
2007,11,12,10,16,16.60
2007,11,12,10,17,18.00
2007,11,12,10,18,18.00
2007,11,12,10,19,16.60
2007,11,12,10,20,16.00
2007,11,12,10,21,17.80
2007,11,12,10,22,18.00
2007,11,12,10,23,18.00
2007,11,12,10,24,18.00
2007,11,12,10,25,18.00
2007,11,12,10,26,18.00
2007,11,12,10,27,18.00
2007,11,12,10,28,18.00
2007,11,12,10,29,18.00
2007,11,12,10,30,18.00
2007,11,12,10,31,18.00
2007,11,12,10,32,19.00
2007,11,12,10,33,20.20
2007,11,12,10,34,23.00
2007,11,12,10,35,24.10
2007,11,12,10,36,25.00
2007,11,12,10,37,25.60
2007,11,12,10,38,26.00
2007,11,12,10,39,26.00
2007,11,12,10,40,25.60
2007,11,12,10,41,19.00
2007,11,12,10,42,19.00
2007,11,12,10,43,19.00
2007,11,12,10,44,21.00
2007,11,12,10,45,23.00
2007,11,12,10,46,19.90
2007,11,12,10,47,16.80
2007,11,12,10,48,16.00
2007,11,12,10,49,18.00
2007,11,12,10,50,18.30
2007,11,12,10,51,19.00
2007,11,12,10,52,19.00
2007,11,12,10,53,19.00
2007,11,12,10,54,16.80
2007,11,12,10,55,14.50
2007,11,12,10,56,14.00
2007,11,12,10,57,16.00
2007,11,12,10,58,16.50
2007,11,12,10,59,19.70
2007,11,12,11,00,22.60
2007,11,12,11,01,25.00
2007,11,12,11,02,25.00
2007,11,12,11,03,25.00
2007,11,12,11,04,25.00
2007,11,12,11,05,25.00
2007,11,12,11,06,26.00
2007,11,12,11,07,26.00
2007,11,12,11,08,24.90
2007,11,12,11,09,21.20
2007,11,12,11,10,18.40
2007,11,12,11,11,18.00
2007,11,12,11,12,18.00
2007,11,12,11,13,16.10
2007,11,12,11,14,16.00
2007,11,12,11,15,15.50
2007,11,12,11,16,12.00
2007,11,12,11,17,12.70
2007,11,12,11,18,14.00
2007,11,12,11,19,14.00
2007,11,12,11,20,14.00
2007,11,12,11,21,12.30
2007,11,12,11,22,14.00
2007,11,12,11,23,14.00
2007,11,12,11,24,15.10
2007,11,12,11,25,19.00
2007,11,12,11,26,19.00
2007,11,12,11,27,18.40
2007,11,12,11,28,18.00
2007,11,12,11,29,18.00
2007,11,12,11,30,18.00
2007,11,12,11,31,18.00
2007,11,12,11,32,25.00
2007,11,12,11,33,25.00
2007,11,12,11,34,25.00
2007,11,12,11,35,24.10
2007,11,12,11,36,22.00
2007,11,12,11,37,21.00
2007,11,12,11,38,21.00
2007,11,12,11,39,21.00
2007,11,12,11,40,18.10
2007,11,12,11,41,18.00
2007,11,12,11,42,18.00
2007,11,12,11,43,18.40
2007,11,12,11,44,19.00
2007,11,12,11,45,20.10
2007,11,12,11,46,21.00
2007,11,12,11,47,24.20
2007,11,12,11,48,25.90
2007,11,12,11,49,25.00
2007,11,12,11,50,25.00
2007,11,12,11,51,25.00
2007,11,12,11,52,28.80
2007,11,12,11,53,31.30
2007,11,12,11,54,27.20
2007,11,12,11,55,26.00
2007,11,12,11,56,26.00
2007,11,12,11,57,30.00
2007,11,12,11,58,32.50
2007,11,12,11,59,51.00
2007,11,12,12,00,52.20
2007,11,12,12,01,52.60
2007,11,12,12,02,46.90
2007,11,12,12,03,40.40
2007,11,12,12,04,33.70
2007,11,12,12,05,30.50
2007,11,12,12,06,30.00
2007,11,12,12,07,30.00
2007,11,12,12,08,30.00
2007,11,12,12,09,30.80
2007,11,12,12,10,33.50
2007,11,12,12,11,35.00
2007,11,12,12,12,42.70
2007,11,12,12,13,54.00
2007,11,12,12,14,56.00
2007,11,12,12,15,60.00
2007,11,12,12,16,58.10
2007,11,12,12,17,53.00
2007,11,12,12,18,51.00
2007,11,12,12,19,52.50
2007,11,12,12,20,57.40
2007,11,12,12,21,58.00
2007,11,12,12,22,58.00
2007,11,12,12,23,82.70
2007,11,12,12,24,84.00
2007,11,12,12,25,88.10
2007,11,12,12,26,98.00
2007,11,12,12,27,95.40
2007,11,12,12,28,88.50
2007,11,12,12,29,76.80
2007,11,12,12,30,63.50
2007,11,12,12,31,54.90
2007,11,12,12,32,54.00
2007,11,12,12,33,54.00
2007,11,12,12,34,76.60
2007,11,12,12,35,110.00
2007,11,12,12,36,98.00
2007,11,12,12,37,64.80
2007,11,12,12,38,51.00
2007,11,12,12,39,84.10
2007,11,12,12,40,113.00
2007,11,12,12,41,118.50
2007,11,12,12,42,140.10
2007,11,12,12,43,118.30
2007,11,12,12,44,118.50
2007,11,12,12,45,123.00
2007,11,12,12,46,123.00
2007,11,12,12,47,141.80
2007,11,12,12,48,144.20
2007,11,12,12,49,159.30
2007,11,12,12,50,244.00
2007,11,12,12,51,244.00
2007,11,12,12,52,244.00
2007,11,12,12,53,181.00
2007,11,12,12,54,113.80
2007,11,12,12,55,115.20
2007,11,12,12,56,124.50
2007,11,12,12,57,125.00
2007,11,12,12,58,141.50
2007,11,12,12,59,281.70
2007,11,12,13,00,325.00
2007,11,12,13,01,291.10
2007,11,12,13,02,275.00
2007,11,12,13,03,284.30
2007,11,12,13,04,224.80
2007,11,12,13,05,267.60
2007,11,12,13,06,298.00
2007,11,12,13,07,266.80
2007,11,12,13,08,237.00
2007,11,12,13,09,237.00
2007,11,12,13,10,237.00
2007,11,12,13,11,237.00
2007,11,12,13,12,237.00
2007,11,12,13,13,150.10
2007,11,12,13,14,128.00
2007,11,12,13,15,128.00
2007,11,12,13,16,127.30
2007,11,12,13,17,125.00
2007,11,12,13,18,127.00
2007,11,12,13,19,130.00
2007,11,12,13,20,135.10
2007,11,12,13,21,128.70
2007,11,12,13,22,127.80
2007,11,12,13,23,127.00
2007,11,12,13,24,129.10
2007,11,12,13,25,145.00
2007,11,12,13,26,148.30
2007,11,12,13,27,155.50
2007,11,12,13,28,140.60
2007,11,12,13,29,125.50
2007,11,12,13,30,123.00
2007,11,12,13,31,123.00
2007,11,12,13,32,123.00
2007,11,12,13,33,123.00
2007,11,12,13,34,123.00
2007,11,12,13,35,115.00
2007,11,12,13,36,102.80
2007,11,12,13,37,100.00
2007,11,12,13,38,100.00
2007,11,12,13,39,100.00
2007,11,12,13,40,103.60
2007,11,12,13,41,105.20
2007,11,12,13,42,112.20
2007,11,12,13,43,115.30
2007,11,12,13,44,112.00
2007,11,12,13,45,105.50
2007,11,12,13,46,99.20
2007,11,12,13,47,98.00
2007,11,12,13,48,98.00
2007,11,12,13,49,98.80
2007,11,12,13,50,113.20
2007,11,12,13,51,114.60
2007,11,12,13,52,116.80
2007,11,12,13,53,120.50
2007,11,12,13,54,123.00
2007,11,12,13,55,123.00
2007,11,12,13,56,123.00
2007,11,12,13,57,160.00
2007,11,12,13,58,162.70
2007,11,12,13,59,179.80
2007,11,12,14,00,167.00
2007,11,12,14,01,167.00
2007,11,12,14,02,141.10
2007,11,12,14,03,118.00
2007,11,12,14,04,118.00
2007,11,12,14,05,122.70
2007,11,12,14,06,123.80
2007,11,12,14,07,140.40
2007,11,12,14,08,148.30
2007,11,12,14,09,146.90
2007,11,12,14,10,144.00
2007,11,12,14,11,175.70
2007,11,12,14,12,197.60
2007,11,12,14,13,156.20
2007,11,12,14,14,122.20
2007,11,12,14,15,90.40
2007,11,12,14,16,79.00
2007,11,12,14,17,79.00
2007,11,12,14,18,86.60
2007,11,12,14,19,98.00
2007,11,12,14,20,224.70
2007,11,12,14,21,308.60
2007,11,12,14,22,307.80
2007,11,12,14,23,306.00
2007,11,12,14,24,299.00
2007,11,12,14,25,268.20
2007,11,12,14,26,282.50
2007,11,12,14,27,272.50
2007,11,12,14,28,255.00
2007,11,12,14,29,270.60
2007,11,12,14,30,284.30
2007,11,12,14,31,279.00
2007,11,12,14,32,266.50
2007,11,12,14,33,258.00
2007,11,12,14,34,255.00
2007,11,12,14,35,246.00
2007,11,12,14,36,211.60
2007,11,12,14,37,181.00
2007,11,12,14,38,181.00
2007,11,12,14,39,181.00
2007,11,12,14,40,214.00
2007,11,12,14,41,236.40
2007,11,12,14,42,232.00
2007,11,12,14,43,232.00
2007,11,12,14,44,228.90
2007,11,12,14,45,225.00
2007,11,12,14,46,225.00
2007,11,12,14,47,225.00
2007,11,12,14,48,221.20
2007,11,12,14,49,220.80
2007,11,12,14,50,216.00
2007,11,12,14,51,216.00
2007,11,12,14,52,216.00
2007,11,12,14,53,214.40
2007,11,12,14,54,210.80
2007,11,12,14,55,207.50
2007,11,12,14,56,204.80
2007,11,12,14,57,204.00
2007,11,12,14,58,199.70
2007,11,12,14,59,197.40
2007,11,12,15,00,199.00
2007,11,12,15,01,199.00
2007,11,12,15,02,199.00
2007,11,12,15,03,193.20
2007,11,12,15,04,190.00
2007,11,12,15,05,190.00
2007,11,12,15,06,190.00
2007,11,12,15,07,187.40
2007,11,12,15,08,183.40
2007,11,12,15,09,185.00
2007,11,12,15,10,181.80
2007,11,12,15,11,179.00
2007,11,12,15,12,179.00
2007,11,12,15,13,107.20
2007,11,12,15,14,97.00
2007,11,12,15,15,176.00
2007,11,12,15,16,168.20
2007,11,12,15,17,108.60
2007,11,12,15,18,42.80
2007,11,12,15,19,37.00
2007,11,12,15,20,32.20
2007,11,12,15,21,27.20
2007,11,12,15,22,26.00
2007,11,12,15,23,25.00
2007,11,12,15,24,24.90
2007,11,12,15,25,23.00
2007,11,12,15,26,23.00
2007,11,12,15,27,23.00
2007,11,12,15,28,24.20
2007,11,12,15,29,25.00
2007,11,12,15,30,29.40
2007,11,12,15,31,28.00
2007,11,12,15,32,28.00
2007,11,12,15,33,27.50
2007,11,12,15,34,23.70
2007,11,12,15,35,21.00
2007,11,12,15,36,21.00
2007,11,12,15,37,21.00
2007,11,12,15,38,33.30
2007,11,12,15,39,68.10
2007,11,12,15,40,70.00
2007,11,12,15,41,71.50
2007,11,12,15,42,74.60
2007,11,12,15,43,47.00
2007,11,12,15,44,41.80
2007,11,12,15,45,34.10
2007,11,12,15,46,30.60
2007,11,12,15,47,28.40
2007,11,12,15,48,25.60
2007,11,12,15,49,25.00
2007,11,12,15,50,24.60
2007,11,12,15,51,23.00
2007,11,12,15,52,23.90
2007,11,12,15,53,25.40
2007,11,12,15,54,28.60
2007,11,12,15,55,30.00
2007,11,12,15,56,37.00
2007,11,12,15,57,37.00
2007,11,12,15,58,36.50
2007,11,12,15,59,29.60
2007,11,12,16,00,29.60
2007,11,12,16,01,33.00
2007,11,12,16,02,33.00
2007,11,12,16,03,33.00
2007,11,12,16,04,33.00
2007,11,12,16,05,33.00
2007,11,12,16,06,26.00
2007,11,12,16,07,24.50
2007,11,12,16,08,20.50
2007,11,12,16,09,19.00
2007,11,12,16,10,17.60
2007,11,12,16,11,14.80
2007,11,12,16,12,14.00
2007,11,12,16,13,12.20
2007,11,12,16,14,12.00
2007,11,12,16,15,12.00
2007,11,12,16,16,12.00
2007,11,12,16,17,11.70
2007,11,12,16,18,11.00
2007,11,12,16,19,11.00
2007,11,12,16,20,11.00
2007,11,12,16,21,11.00
2007,11,12,16,22,11.00
2007,11,12,16,23,9.00
2007,11,12,16,24,9.00
2007,11,12,16,25,9.00
2007,11,12,16,26,9.00
2007,11,12,16,27,9.00
2007,11,12,16,28,7.80
2007,11,12,16,29,7.00
2007,11,12,16,30,7.00
2007,11,12,16,31,7.00
2007,11,12,16,32,7.00
2007,11,12,16,33,6.80
2007,11,12,16,34,5.00
2007,11,12,16,35,5.00
2007,11,12,16,36,5.00
2007,11,12,16,37,5.00
2007,11,12,16,38,5.00
2007,11,12,16,39,5.00
2007,11,12,16,40,5.00
2007,11,12,16,41,5.00
2007,11,12,16,42,4.20
2007,11,12,16,43,0.00
2007,11,12,16,44,0.00
2007,11,12,16,45,0.00
2007,11,12,16,46,0.00
2007,11,12,16,47,0.00
2007,11,12,16,48,0.00
2007,11,12,16,49,0.00
2007,11,12,16,50,0.00
2007,11,12,16,51,0.00
2007,11,12,16,52,0.00
2007,11,12,16,53,0.00
2007,11,12,16,54,0.00
2007,11,12,16,55,0.00
2007,11,12,16,56,0.00
2007,11,12,16,57,0.00
2007,11,12,16,58,0.00
2007,11,12,16,59,0.00
2007,11,12,17,00,0.00
2007,11,12,17,01,0.00
2007,11,12,17,02,0.00
2007,11,12,17,03,0.00
2007,11,12,17,04,0.00
2007,11,12,17,05,0.00
2007,11,12,17,06,0.00
2007,11,12,17,07,0.00
2007,11,12,17,08,0.00
2007,11,12,17,09,0.00
2007,11,12,17,10,0.00
2007,11,12,17,11,0.00
2007,11,12,17,12,0.00
2007,11,12,17,13,0.00
2007,11,12,17,14,0.00
2007,11,12,17,15,0.00
2007,11,12,17,16,0.00
2007,11,12,17,17,0.00
2007,11,12,17,18,0.00
2007,11,12,17,19,0.00
2007,11,12,17,20,0.00
2007,11,12,17,21,0.00
2007,11,12,17,22,0.00
2007,11,12,17,23,0.00
2007,11,12,17,24,0.00
2007,11,12,17,25,0.00
2007,11,12,17,26,0.00
2007,11,12,17,27,0.00
2007,11,12,17,28,0.00
2007,11,12,17,29,0.00
2007,11,12,17,30,0.00
2007,11,12,17,31,0.00
2007,11,12,17,32,0.00
2007,11,12,17,33,0.00
2007,11,12,17,34,0.00
2007,11,12,17,35,0.00
2007,11,12,17,36,0.00
2007,11,12,17,37,0.00
2007,11,12,17,38,0.00
2007,11,12,17,39,0.00
2007,11,12,17,40,0.00
2007,11,12,17,41,0.00
2007,11,12,17,42,0.00
2007,11,12,17,43,0.00
2007,11,12,17,44,0.00
2007,11,12,17,45,0.00
2007,11,12,17,46,0.00
2007,11,12,17,47,0.00
2007,11,12,17,48,0.00
2007,11,12,17,49,0.00
2007,11,12,17,50,0.00
2007,11,12,17,51,0.00
2007,11,12,17,52,0.00
2007,11,12,17,53,0.00
2007,11,12,17,54,0.00
2007,11,12,17,55,0.00
2007,11,12,17,56,0.00
2007,11,12,17,57,0.00
2007,11,12,17,58,0.00
2007,11,12,17,59,0.00
2007,11,12,18,00,0.00
2007,11,12,18,01,0.00
2007,11,12,18,02,0.00
2007,11,12,18,03,0.00
2007,11,12,18,04,0.00
2007,11,12,18,05,0.00
2007,11,12,18,06,0.00
2007,11,12,18,07,0.00
2007,11,12,18,08,0.00
2007,11,12,18,09,0.00
2007,11,12,18,10,0.00
2007,11,12,18,11,0.00
2007,11,12,18,12,0.00
2007,11,12,18,13,0.00
2007,11,12,18,14,0.00
2007,11,12,18,15,0.00
2007,11,12,18,16,0.00
2007,11,12,18,17,0.00
2007,11,12,18,18,0.00
2007,11,12,18,19,0.00
2007,11,12,18,20,0.00
2007,11,12,18,21,0.00
2007,11,12,18,22,0.00
2007,11,12,18,23,0.00
2007,11,12,18,24,0.00
2007,11,12,18,25,0.00
2007,11,12,18,26,0.00
2007,11,12,18,27,0.00
2007,11,12,18,28,0.00
2007,11,12,18,29,0.00
2007,11,12,18,30,0.00
2007,11,12,18,31,0.00
2007,11,12,18,32,0.00
2007,11,12,18,33,0.00
2007,11,12,18,34,0.00
2007,11,12,18,35,0.00
2007,11,12,18,36,0.00
2007,11,12,18,37,0.00
2007,11,12,18,38,0.00
2007,11,12,18,39,0.00
2007,11,12,18,40,0.00
2007,11,12,18,41,0.00
2007,11,12,18,42,0.00
2007,11,12,18,43,0.00
2007,11,12,18,44,0.00
2007,11,12,18,45,0.00
2007,11,12,18,46,0.00
2007,11,12,18,47,0.00
2007,11,12,18,48,0.00
2007,11,12,18,49,0.00
2007,11,12,18,50,0.00
2007,11,12,18,51,0.00
2007,11,12,18,52,0.00
2007,11,12,18,53,0.00
2007,11,12,18,54,0.00
2007,11,12,18,55,0.00
2007,11,12,18,56,0.00
2007,11,12,18,57,0.00
2007,11,12,18,58,0.00
2007,11,12,18,59,0.00
2007,11,12,19,00,0.00
2007,11,12,19,01,0.00
2007,11,12,19,02,0.00
2007,11,12,19,03,0.00
2007,11,12,19,04,0.00
2007,11,12,19,05,0.00
2007,11,12,19,06,0.00
2007,11,12,19,07,0.00
2007,11,12,19,08,0.00
2007,11,12,19,09,0.00
2007,11,12,19,10,0.00
2007,11,12,19,11,0.00
2007,11,12,19,12,0.00
2007,11,12,19,13,0.00
2007,11,12,19,14,0.00
2007,11,12,19,15,0.00
2007,11,12,19,16,0.00
2007,11,12,19,17,0.00
2007,11,12,19,18,0.00
2007,11,12,19,19,0.00
2007,11,12,19,20,0.00
2007,11,12,19,21,0.00
2007,11,12,19,22,0.00
2007,11,12,19,23,0.00
2007,11,12,19,24,0.00
2007,11,12,19,25,0.00
2007,11,12,19,26,0.00
2007,11,12,19,27,0.00
2007,11,12,19,28,0.00
2007,11,12,19,29,0.00
2007,11,12,19,30,0.00
2007,11,12,19,31,0.00
2007,11,12,19,32,0.00
2007,11,12,19,33,0.00
2007,11,12,19,34,0.00
2007,11,12,19,35,0.00
2007,11,12,19,36,0.00
2007,11,12,19,37,0.00
2007,11,12,19,38,0.00
2007,11,12,19,39,0.00
2007,11,12,19,40,0.00
2007,11,12,19,41,0.00
2007,11,12,19,42,0.00
2007,11,12,19,43,0.00
2007,11,12,19,44,0.00
2007,11,12,19,45,0.00
2007,11,12,19,46,0.00
2007,11,12,19,47,0.00
2007,11,12,19,48,0.00
2007,11,12,19,49,0.00
2007,11,12,19,50,0.00
2007,11,12,19,51,0.00
2007,11,12,19,52,0.00
2007,11,12,19,53,0.00
2007,11,12,19,54,0.00
2007,11,12,19,55,0.00
2007,11,12,19,56,0.00
2007,11,12,19,57,0.00
2007,11,12,19,58,0.00
2007,11,12,19,59,0.00
2007,11,12,20,00,0.00
2007,11,12,20,01,0.00
2007,11,12,20,02,0.00
2007,11,12,20,03,0.00
2007,11,12,20,04,0.00
2007,11,12,20,05,0.00
2007,11,12,20,06,0.00
2007,11,12,20,07,0.00